Temp
93 92 92 91 91 90 90 90 89 89 86 86 84 84 84 84 83 81 81 83 81 81 81 81 81 81 83 85 86 85 82 81 76 79 82 83 78 80 81 81 83 83 83
94 93 92 91 91 90 89 90 87 86 86 84 83 82 83 83 78 81 81 83 81 80 81 80 80 84 79 79 83 78 79 80 77 72 76 78 78 80 81 79 81 84 84
95 94 93 91 91 89 88 88 85 85 83 84 83 81 81 82 82 82 82 81 81 82 82 81 81 81 79 81 79 80 80 78 79 78 76 77 79 77 78 80 77 76 78
98 96 92 91 90 90 88 86 84 83 82 82 82 81 81 82 82 82 82 81 81 82 82 82 82 79 77 76 77 76 78 75 78 78 77 76 78 74 79 78 75 75 76
97 96 93 91 90 89 86 84 82 82 81 81 81 81 82 83 85 82 82 81 81 80 81 82 81 79 73 71 76 70 73 74 78 77 76 76 75 77 72 77 75 77 73
95 95 93 89 87 86 83 81 79 82 82 82 79 80 79 84 73 71 78 80 80 80 76 79 75 76 76 67 67 66 65 65 68 70 72 73 70 72 72 70 70 72 70
94 94 93 88 84 80 81 79 78 79 81 81 78 79 79 80 67 67 69 80 76 79 77 76 79 82 74 78 69 64 64 64 64 70 67 69 68 71 71 69 69 69 69
91 91 90 86 81 78 77 77 78 80 80 81 79 81 80 81 65 64 67 74 75 79 80 79 78 77 76 69 73 69 69 75 72 72 71 72 73 73 70 69 67 67 70
89 89 89 84 80 77 76 78 79 79 81 78 78 76 78 78 62 61 67 75 73 77 79 80 76 73 67 63 66 66 70 72 73 66 64 62 61 60 63 69 68 69 67
89 88 88 83 79 78 77 77 78 80 80 81 79 76 75 78 59 59 65 72 72 80 78 76 64 68 60 60 70 71 70 73 75 76 73 68 63 67 60 66 70 63 67
90 88 85 82 78 79 78 78 77 77 75 73 73 79 78 77 74 57 57 75 79 78 78 72 76 58 58 56 55 70 69 65 70 71 73 74 76 76 77 76 74 71 68
88 86 82 79 79 79 77 77 76 74 75 76 75 77 80 78 64 57 56 57 67 76 76 79 71 56 57 56 58 58 58 58 71 72 72 73 74 74 75 74 70 70 71
85 80 78 78 77 78 79 77 75 77 79 77 78 78 79 80 74 56 55 54 56 66 67 57 56 54 54 54 54 57 56 67 70 68 70 71 73 74 71 70 71 70 70
77 75 76 75 76 76 80 77 74 76 77 80 79 76 76 76 68 69 71 68 58 65 59 68 64 61 55 58 63 61 67 69 70 69 68 71 72 71 70 71 69 69 68
74 74 75 77 76 76 76 72 75 76 66 80 81 75 74 78 79 69 64 72 77 68 72 76 72 72 73 70 69 68 68 71 70 70 69 69 69 69 68 70 68 67 66
76 77 78 79 78 73 72 70 48 49 47 47 46 61 71 53 47 47 46 48 50 53 70 72 74 74 73 73 70 70 72 69 70 69 68 67 67 66 66 67 68 67 65
79 78 80 80 80 79 78 79 76 59 46 45 44 46 50 49 45 44 44 44 46 50 70 74 74 73 73 73 72 72 70 71 66 67 67 66 66 66 65 66 66 66 66
84 69 84 86 86 84 84 83 84 78 76 72 49 52 43 43 43 43 43 48 64 60 71 74 74 73 72 71 71 70 70 69 69 68 67 67 67 66 65 65 66 65 65
83 85 87 87 88 83 85 84 85 85 83 74 67 58 50 42 42 43 44 70 75 75 76 74 74 73 72 71 70 69 67 66 65 64 65 67 67 66 65 66 66 58 60
84 70 79 86 83 83 83 83 83 83 83 72 76 74 67 61 66 66 67 71 74 75 76 74 74 72 71 69 68 67 66 66 67 67 67 66 66 66 66 66 67 66 67
85 84 73 84 83 83 83 83 83 84 83 83 77 71 60 70 73 70 74 73 73 74 74 73 72 72 70 68 67 66 67 67 68 67 66 66 66 65 67 67 68 69 69
84 84 85 84 83 81 81 83 83 83 82 82 69 66 51 75 76 73 74 69 73 74 75 72 71 73 72 70 68 67 67 67 67 67 65 66 66 67 67 67 68 69 69
80 83 83 82 81 71 78 81 81 81 81 76 72 75 73 74 73 71 68 68 69 72 74 73 71 71 72 71 69 68 68 69 69 67 64 64 66 66 65 66 67 67 67
78 83 76 79 78 81 81 80 80 68 77 75 74 69 68 71 68 67 66 68 71 71 72 72 71 71 72 69 70 70 70 69 66 66 64 63 65 64 65 66 67 67 68
82 76 76 74 76 79 80 80 79 80 76 76 71 74 73 70 66 69 68 70 70 69 68 71 71 70 68 67 68 67 45 41 55 39 61 63 64 64 66 67 66 67 68
74 76 80 82 80 80 79 79 79 79 76 76 79 79 76 72 72 71 71 67 65 67 68 72 71 69 68 68 66 43 35 41 49 35 53 61 64 66 65 64 65 67 67
MSLP
1005.82 1006.60 1007.51 1008.37 1009.15 1009.86 1010.16 1010.45 1010.84 1011.36 1012.10 1012.48 1012.51 1012.64 1013.14 1013.98 1014.89 1015.21 1015.51 1015.61 1016.01 1016.23 1016.61 1016.64 1016.54 1016.58 1016.37 1016.00 1015.77 1015.81 1016.04 1016.07 1015.93 1015.92 1016.05 1016.06 1016.21 1016.19 1016.02 1015.93 1015.72 1015.61 1015.47
1004.82 1005.78 1006.60 1007.41 1008.12 1008.69 1009.33 1009.63 1010.26 1010.68 1011.10 1011.36 1011.92 1012.57 1013.10 1013.39 1014.47 1014.39 1015.09 1014.90 1015.28 1015.48 1015.75 1015.97 1016.03 1015.92 1016.19 1016.15 1015.94 1015.83 1015.92 1015.90 1016.04 1015.77 1015.85 1016.01 1015.74 1015.45 1015.27 1015.27 1015.18 1014.82 1014.49
1003.87 1004.82 1005.59 1006.22 1006.92 1007.53 1008.29 1008.70 1009.46 1009.87 1010.49 1010.72 1011.51 1012.30 1012.40 1012.83 1013.58 1013.74 1014.11 1014.81 1015.01 1014.91 1015.20 1015.43 1015.55 1015.58 1015.78 1015.69 1015.84 1015.64 1015.64 1015.64 1015.45 1015.48 1015.50 1015.49 1015.51 1015.16 1014.92 1014.49 1014.48 1014.45 1014.30
1002.56 1003.44 1004.27 1005.12 1005.90 1006.57 1007.32 1007.87 1008.66 1009.28 1009.48 1010.10 1010.94 1011.76 1012.15 1012.61 1013.02 1013.43 1013.47 1014.31 1014.61 1014.70 1014.88 1015.14 1015.09 1015.34 1015.69 1015.91 1015.98 1015.92 1015.59 1015.57 1015.33 1015.16 1015.01 1015.17 1014.84 1014.56 1014.17 1013.57 1013.85 1013.92 1013.49
1001.24 1002.31 1003.20 1004.35 1005.23 1006.05 1006.62 1007.38 1008.17 1008.60 1008.75 1009.36 1010.31 1011.17 1011.65 1012.19 1012.30 1012.80 1013.02 1013.53 1014.02 1014.40 1014.50 1014.71 1014.79 1014.88 1015.17 1015.61 1015.68 1015.76 1015.73 1015.57 1015.07 1014.78 1014.51 1014.24 1014.19 1013.73 1013.94 1013.64 1013.45 1013.12 1012.73
1000.30 1001.12 1002.18 1003.44 1004.57 1005.34 1006.23 1007.16 1008.29 1008.59 1009.35 1009.85 1010.54 1010.79 1010.94 1011.34 1011.56 1012.13 1012.58 1013.27 1013.52 1013.78 1014.30 1014.28 1014.49 1014.52 1014.74 1015.00 1015.29 1015.55 1016.18 1016.45 1015.80 1015.26 1014.61 1014.25 1014.24 1014.22 1014.10 1014.06 1013.74 1012.93 1012.30
999.66 1000.54 1001.53 1002.89 1004.07 1005.20 1006.21 1007.09 1007.55 1008.12 1008.78 1008.95 1009.21 1009.86 1010.70 1011.13 1011.47 1011.88 1012.39 1012.88 1013.22 1013.39 1013.98 1014.17 1013.96 1014.03 1014.63 1014.84 1014.97 1014.98 1015.06 1015.32 1015.28 1014.91 1014.62 1014.44 1014.29 1014.09 1014.11 1013.85 1013.28 1013.04 1012.53
999.35 1000.22 1001.28 1002.63 1004.14 1005.42 1006.09 1006.40 1007.03 1007.36 1007.53 1008.23 1008.90 1009.09 1009.96 1010.70 1011.52 1011.74 1012.08 1012.84 1012.92 1012.95 1013.01 1013.33 1013.54 1014.09 1014.32 1014.41 1014.24 1014.32 1014.29 1013.78 1013.88 1014.23 1014.20 1014.06 1013.92 1013.96 1014.16 1013.94 1013.65 1013.06 1012.23
999.25 1000.25 1001.27 1002.67 1003.81 1004.95 1005.77 1006.20 1006.41 1006.50 1006.65 1007.39 1008.79 1009.22 1009.28 1010.11 1011.05 1011.43 1011.81 1012.33 1012.49 1012.61 1012.58 1012.70 1013.13 1013.58 1013.88 1013.81 1013.86 1013.57 1013.28 1013.12 1012.69 1012.90 1013.24 1013.58 1013.81 1013.89 1014.04 1013.83 1012.91 1011.94 1011.21
998.98 1000.08 1001.25 1002.65 1003.72 1004.58 1005.44 1006.01 1006.32 1006.52 1007.03 1007.43 1008.04 1008.75 1009.39 1009.71 1010.57 1011.12 1011.53 1011.88 1012.09 1011.46 1011.80 1012.39 1012.94 1013.27 1013.38 1013.51 1013.45 1013.31 1013.15 1012.75 1012.39 1012.49 1013.07 1013.28 1013.13 1012.84 1012.99 1012.92 1012.19 1011.58 1010.95
999.16 1000.21 1001.43 1002.75 1003.71 1004.38 1005.09 1005.70 1006.27 1006.72 1007.11 1007.54 1008.26 1008.16 1008.65 1009.09 1009.75 1010.60 1011.29 1011.41 1011.07 1010.79 1011.40 1012.21 1012.63 1012.78 1013.40 1013.80 1013.75 1013.39 1013.18 1013.22 1012.77 1012.79 1012.41 1011.97 1011.38 1011.24 1011.03 1011.02 1011.08 1010.98 1010.56
999.25 1000.33 1001.63 1002.67 1003.55 1004.18 1004.86 1005.54 1006.20 1006.75 1007.27 1007.56 1007.80 1007.94 1007.95 1008.74 1009.38 1010.20 1010.83 1011.13 1010.95 1011.00 1011.07 1011.01 1011.81 1012.74 1013.35 1013.48 1013.43 1013.29 1013.51 1013.46 1012.87 1012.29 1011.57 1011.06 1010.84 1010.66 1010.55 1010.71 1010.92 1010.87 1010.52
999.71 1000.85 1001.80 1002.89 1003.56 1004.10 1004.77 1005.47 1006.18 1006.81 1006.76 1007.17 1007.15 1007.32 1007.51 1008.03 1009.10 1010.18 1010.70 1010.91 1011.29 1011.57 1011.69 1012.09 1012.53 1013.02 1013.22 1013.29 1013.46 1013.71 1013.73 1013.20 1012.45 1011.78 1011.26 1010.96 1010.93 1010.83 1010.94 1010.62 1010.11 1009.96 1009.55
1000.62 1001.60 1002.23 1003.01 1003.61 1004.32 1004.92 1005.83 1006.40 1006.71 1007.09 1006.86 1006.82 1007.25 1007.68 1008.09 1009.19 1010.28 1010.61 1010.82 1011.39 1011.58 1012.02 1012.11 1012.32 1012.48 1012.74 1013.06 1013.02 1013.22 1012.96 1012.47 1011.82 1011.73 1011.61 1011.22 1010.98 1010.79 1010.56 1010.29 1009.86 1009.51 1009.03
1001.32 1001.99 1002.28 1002.92 1003.69 1004.42 1005.51 1006.56 1006.55 1006.71 1007.41 1006.85 1006.87 1007.27 1007.88 1007.84 1008.05 1008.51 1009.69 1009.90 1009.99 1010.56 1010.63 1010.79 1011.38 1011.26 1011.04 1011.22 1011.43 1011.73 1011.85 1011.58 1011.46 1011.33 1011.26 1011.03 1010.91 1010.67 1010.44 1010.13 1009.78 1009.35 1008.57
1001.08 1001.64 1002.12 1002.72 1003.29 1004.35 1005.37 1006.75 1007.79 1008.12 1008.34 1008.14 1007.88 1007.50 1008.12 1008.44 1008.99 1009.26 1009.65 1010.16 1010.55 1010.89 1010.89 1010.60 1010.01 1009.96 1010.06 1010.22 1010.45 1010.69 1010.87 1011.03 1011.09 1011.23 1011.32 1011.12 1010.80 1010.63 1010.32 1010.04 1009.48 1009.00 1008.23
1001.09 1001.65 1001.97 1002.05 1002.82 1003.77 1004.13 1004.86 1006.39 1008.38 1008.12 1008.13 1008.36 1008.57 1008.43 1009.36 1009.72 1009.90 1010.20 1010.62 1010.96 1011.15 1010.79 1009.69 1009.46 1009.72 1009.83 1010.03 1010.28 1010.59 1010.73 1010.82 1011.40 1011.45 1011.15 1011.09 1010.79 1010.41 1010.11 1009.67 1009.22 1008.65 1007.96
1000.49 1000.97 1001.24 1001.11 1001.55 1002.20 1002.57 1003.54 1004.28 1005.64 1006.71 1007.99 1009.17 1009.39 1009.67 1009.78 1009.91 1010.16 1010.47 1010.82 1011.23 1011.21 1010.30 1009.34 1009.29 1009.54 1009.92 1010.29 1010.49 1010.61 1010.74 1010.89 1010.91 1010.96 1011.01 1010.84 1010.52 1010.20 1009.87 1009.47 1009.01 1008.39 1007.79
1000.63 1000.89 1000.98 1000.97 1001.24 1001.85 1002.60 1003.08 1003.46 1003.80 1004.53 1006.60 1008.58 1009.66 1010.42 1010.62 1010.71 1010.92 1011.02 1010.38 1009.32 1008.92 1008.79 1009.07 1009.36 1009.63 1009.84 1010.19 1010.56 1010.79 1011.15 1011.24 1011.32 1011.50 1011.07 1010.57 1010.33 1010.11 1009.72 1009.28 1008.78 1008.17 1007.52
1000.53 1000.99 1000.90 1001.37 1002.24 1002.62 1003.04 1003.03 1003.17 1003.62 1004.16 1005.85 1006.81 1007.96 1009.63 1010.53 1010.57 1010.57 1010.27 1009.64 1009.16 1008.89 1008.68 1009.03 1009.31 1009.73 1010.04 1010.41 1010.68 1010.89 1011.11 1010.99 1010.81 1010.74 1010.48 1010.51 1010.31 1010.06 1009.54 1009.12 1008.46 1007.73 1006.97
1001.00 1001.56 1001.52 1001.61 1002.27 1002.70 1002.90 1002.98 1003.14 1003.39 1003.73 1004.42 1005.37 1006.60 1007.84 1008.75 1008.51 1008.55 1008.41 1008.77 1008.91 1008.71 1008.86 1009.20 1009.43 1009.79 1010.15 1010.52 1010.85 1011.00 1010.87 1010.60 1010.50 1010.63 1010.57 1010.46 1010.28 1009.90 1009.42 1008.89 1008.19 1007.48 1006.77
1000.91 1001.57 1001.51 1001.78 1002.38 1003.22 1003.26 1003.39 1003.62 1003.87 1003.99 1004.44 1006.30 1007.64 1007.84 1007.93 1007.85 1008.02 1008.28 1008.66 1008.56 1008.75 1008.92 1009.33 1009.60 1009.53 1009.77 1010.06 1010.46 1010.72 1010.61 1010.38 1010.44 1010.56 1010.68 1010.52 1010.13 1009.71 1009.36 1008.79 1008.08 1007.43 1006.90
1001.18 1001.27 1001.74 1002.37 1002.87 1003.45 1003.73 1003.57 1003.59 1003.98 1004.06 1004.84 1006.09 1006.79 1007.55 1007.53 1007.67 1007.94 1008.40 1008.64 1008.72 1008.80 1009.16 1009.46 1009.62 1009.71 1009.80 1010.30 1010.70 1010.75 1010.48 1010.17 1010.42 1010.81 1010.92 1010.62 1010.12 1009.70 1009.61 1008.76 1008.11 1007.54 1007.12
1001.57 1001.81 1002.12 1002.28 1002.73 1002.80 1002.83 1003.03 1003.49 1004.18 1004.33 1005.04 1005.76 1006.44 1007.12 1007.38 1007.73 1008.04 1008.32 1008.48 1008.67 1008.94 1009.07 1009.35 1009.61 1009.60 1009.72 1010.42 1010.46 1010.62 1010.51 1010.59 1011.15 1011.09 1011.13 1010.93 1010.30 1009.88 1009.62 1008.83 1008.23 1007.93 1007.25
1001.78 1002.39 1002.30 1002.52 1002.92 1002.90 1002.79 1002.93 1002.97 1003.16 1004.07 1004.75 1005.44 1005.63 1006.31 1006.82 1007.39 1007.90 1008.15 1008.59 1008.85 1008.83 1009.06 1009.17 1009.40 1009.58 1010.07 1010.45 1010.41 1010.49 1011.77 1012.06 1012.10 1012.63 1011.76 1011.13 1010.46 1010.07 1009.23 1008.90 1008.56 1008.01 1007.56
1002.59 1002.18 1002.31 1002.58 1002.79 1002.84 1002.82 1002.84 1002.79 1002.97 1003.50 1003.98 1004.09 1004.45 1005.11 1005.82 1006.29 1006.78 1007.37 1007.97 1008.33 1008.44 1008.49 1008.51 1008.98 1009.46 1009.84 1010.23 1010.59 1011.64 1012.10 1012.37 1012.49 1012.84 1012.43 1011.43 1010.41 1009.75 1009.82 1009.37 1008.77 1008.21 1007.89
Wind_Speed
18 16 16 16 16 15 12 13 11 11 12 12 15 14 12 11 10 8 7 6 7 8 7 7 7 6 7 7 5 5 5 6 8 7 9 8 6 8 9 8 10 9 10
17 16 16 15 16 17 16 15 15 15 15 16 15 12 11 12 9 11 11 9 10 9 9 9 9 9 8 8 6 7 6 5 7 9 8 9 9 9 7 8 9 11 11
19 19 18 18 18 18 18 18 18 16 17 17 15 14 13 13 12 11 10 9 10 9 9 9 9 9 6 7 7 7 6 5 5 8 7 6 8 7 11 8 7 9 9
21 20 19 19 18 18 18 19 18 18 18 16 15 15 14 14 13 12 11 11 10 9 8 9 8 6 7 8 9 8 9 7 10 8 7 9 10 8 11 8 7 7 9
18 19 18 17 17 17 18 20 19 19 18 17 15 14 13 12 11 12 11 10 10 10 9 9 9 8 8 6 4 6 9 8 9 9 9 8 9 8 9 9 11 11 8
18 19 17 18 17 18 17 17 17 16 13 12 12 13 14 11 10 10 9 10 9 10 8 9 6 6 6 4 6 4 4 8 11 10 10 10 10 9 8 8 10 12 12
15 16 14 17 17 16 17 16 19 17 13 13 16 12 12 12 11 11 10 10 6 9 8 9 10 8 4 7 7 9 11 14 19 11 10 9 10 10 10 11 11 12 13
15 14 15 17 17 15 15 17 16 16 17 13 14 13 10 10 9 10 10 6 7 11 10 11 10 9 9 6 8 9 12 13 12 10 12 12 11 9 10 11 12 13 13
16 15 15 17 17 16 17 17 15 14 15 13 11 7 11 10 12 14 13 9 9 13 11 10 8 8 9 10 6 7 8 9 9 11 4 4 8 11 12 9 10 11 12
17 16 16 16 14 16 16 13 9 10 11 9 12 8 11 12 14 14 13 7 11 12 8 9 7 12 8 9 8 8 10 11 10 9 7 9 14 14 20 15 11 10 11
16 16 16 15 13 12 11 8 7 6 5 7 9 11 12 11 11 13 14 10 10 7 7 6 9 11 8 6 4 7 8 7 8 9 10 11 10 9 9 7 6 9 12
15 15 15 13 11 10 11 9 8 8 10 10 10 9 7 9 10 14 14 15 6 7 10 7 4 8 7 7 5 1 2 5 8 10 10 9 9 10 9 8 10 11 11
14 13 13 11 9 10 11 10 7 8 8 9 9 8 7 8 6 4 9 7 7 6 3 6 10 7 5 4 8 6 6 8 9 8 9 9 9 9 9 11 10 10 11
12 13 12 10 10 9 9 8 7 8 8 7 5 5 5 5 8 7 7 7 6 8 8 8 4 1 3 1 5 7 7 8 7 8 9 9 9 9 9 9 10 10 11
10 10 11 10 10 9 5 1 5 2 4 4 5 6 6 7 6 6 7 7 7 4 8 6 7 8 9 8 6 5 7 7 7 7 8 8 9 9 9 9 9 11 11
12 11 9 10 8 8 9 7 15 11 7 8 6 9 7 11 12 14 15 13 11 7 3 7 8 7 6 6 4 5 5 5 6 6 7 8 8 8 9 9 10 10 10
12 12 10 10 11 10 9 10 9 6 11 14 13 10 8 12 10 13 13 12 9 5 7 7 5 5 6 5 5 6 6 6 5 7 7 8 8 8 8 9 9 10 10
10 5 10 10 9 9 9 7 8 9 7 7 11 8 9 9 9 10 10 8 4 5 7 6 4 4 4 5 5 5 5 6 6 6 7 7 7 7 8 9 9 10 11
10 7 8 7 7 5 6 6 6 6 5 11 8 6 7 9 9 7 3 6 7 5 5 4 4 4 4 4 4 4 5 6 5 6 7 7 6 7 8 8 9 10 11
5 5 6 8 7 5 6 6 6 4 5 9 8 7 8 6 6 8 8 8 6 6 4 3 3 3 4 4 4 4 5 6 6 5 5 5 6 7 8 9 9 10 10
7 7 4 7 6 6 6 5 5 5 4 4 5 9 15 9 8 5 6 6 6 6 5 4 4 3 3 3 4 5 6 6 4 4 5 6 6 7 8 8 9 10 10
7 9 8 8 7 4 4 2 2 3 4 2 9 8 10 7 6 3 3 3 5 5 4 4 5 4 4 4 4 5 7 5 4 4 5 6 6 7 7 9 9 9 10
6 7 7 5 6 6 5 4 4 5 6 4 8 6 6 5 6 3 3 3 3 4 4 4 4 5 4 2 4 5 6 4 3 4 5 6 7 7 8 8 9 9 9
4 7 4 5 3 6 7 6 3 1 4 4 2 3 4 3 1 2 3 4 2 5 4 4 5 6 2 2 4 5 5 2 4 5 7 7 7 7 8 8 8 11 8
6 3 4 4 7 8 7 7 8 6 5 3 6 8 7 6 5 4 3 5 8 6 4 5 5 5 5 6 8 5 7 10 5 6 7 8 9 9 7 8 8 10 8
9 4 3 2 4 4 5 6 6 3 8 9 6 5 9 9 8 8 7 7 5 7 8 6 6 6 5 6 7 11 7 5 3 3 6 7 9 6 6 9 8 8 8
Wind_Direction
196 191 190 194 193 194 208 193 191 196 184 194 198 199 187 187 193 190 231 270 203 207 239 275 266 269 267 279 303 323 306 295 308 314 331 312 337 293 281 276 269 265 272
194 193 187 190 194 192 198 197 187 202 191 196 200 190 188 175 188 179 213 222 214 228 232 232 243 242 210 232 248 247 263 293 276 304 295 293 273 271 260 261 259 278 279
195 192 193 195 192 192 192 196 197 196 198 200 192 191 189 185 192 192 197 219 237 238 232 234 236 250 269 282 305 295 289 279 270 284 302 303 300 310 293 273 258 257 266
189 197 195 196 194 194 192 195 194 201 198 195 188 188 192 192 194 202 188 216 235 236 231 244 248 269 264 256 258 261 258 253 268 270 272 266 264 265 256 277 283 266 269
187 194 194 189 194 192 195 192 200 202 204 192 183 187 197 202 194 200 200 213 223 233 241 238 238 249 304 289 285 284 308 292 295 297 290 282 260 300 318 309 302 301 284
184 195 188 181 185 193 190 196 208 221 217 204 187 197 201 219 182 169 185 224 231 233 244 254 293 274 258 252 265 278 295 293 283 274 283 286 293 300 302 284 288 291 297
193 190 182 175 179 183 191 200 212 221 213 200 203 199 206 220 164 173 177 221 230 231 224 244 243 251 218 267 230 214 226 243 241 259 273 275 297 295 301 291 291 299 289
182 184 178 169 176 181 195 206 215 221 215 208 201 202 210 215 167 163 156 216 233 245 241 239 243 259 246 234 251 239 239 244 231 232 245 261 272 299 303 292 288 278 270
176 184 178 173 179 185 202 213 218 214 210 193 213 209 208 214 177 165 171 208 228 234 239 241 231 252 245 222 229 258 256 256 261 211 221 280 259 257 256 283 281 290 293
175 178 176 181 184 193 201 209 222 221 221 205 209 198 215 223 168 179 192 207 235 235 215 242 236 248 200 194 229 257 268 275 283 283 233 246 246 247 238 237 259 271 288
170 172 173 178 185 193 194 196 193 210 174 177 209 214 226 222 197 189 195 224 255 233 231 241 243 176 172 196 239 276 293 329 292 281 269 264 267 281 274 255 274 302 298
161 165 168 174 179 179 176 167 176 180 193 201 209 224 231 225 207 187 199 218 269 246 260 259 198 148 166 184 217 77 301 300 274 272 271 280 292 294 301 328 325 289 275
157 158 159 163 169 166 170 165 162 191 208 210 209 221 222 214 181 99 180 200 217 247 339 79 106 162 158 232 246 242 263 266 264 270 285 298 303 315 315 283 287 301 286
136 154 153 161 152 152 160 159 173 186 218 224 230 239 248 230 144 173 205 189 208 199 152 172 132 134 319 49 143 203 242 255 291 314 296 289 305 301 306 309 309 310 302
146 158 157 150 153 148 109 61 214 72 353 248 202 195 209 212 190 149 180 190 193 194 184 196 213 218 229 204 203 225 227 259 268 291 298 307 304 306 307 315 317 301 299
151 156 152 151 162 150 150 127 49 50 42 37 41 40 68 64 99 108 101 93 91 83 191 253 256 256 258 282 260 245 267 268 267 294 313 298 306 309 314 317 302 310 308
156 153 160 171 171 175 189 188 173 94 66 55 42 46 73 119 111 106 104 99 85 109 237 258 267 286 290 289 288 285 290 299 360 282 283 304 300 307 311 315 317 314 324
152 158 164 200 177 173 161 182 186 163 176 137 55 54 67 102 106 112 121 130 157 209 255 271 270 262 273 282 289 292 297 305 299 301 307 296 303 313 315 317 319 324 323
157 175 187 182 161 134 165 181 209 203 172 118 130 117 85 62 71 85 157 252 260 248 230 224 256 283 280 270 277 288 305 295 319 313 287 296 316 314 316 319 316 311 303
142 98 174 149 125 163 168 194 187 202 175 142 158 157 150 163 184 194 210 230 254 259 245 251 258 277 284 289 291 300 284 272 270 275 303 318 308 317 315 320 322 321 323
157 153 73 119 156 159 170 191 195 200 214 216 171 143 161 190 223 205 201 202 242 254 230 244 279 262 253 266 281 282 277 269 281 288 303 308 320 312 317 322 319 324 331
145 167 181 157 126 140 171 186 229 256 276 270 109 105 140 213 249 236 241 249 241 237 282 225 269 257 246 277 308 284 270 270 276 299 314 312 318 314 338 316 326 328 334
171 150 132 156 196 128 186 214 220 236 255 103 151 161 189 231 247 236 199 261 254 236 225 254 263 268 231 247 266 264 267 284 344 339 312 316 314 333 318 324 328 336 336
128 189 177 205 201 205 209 212 215 4 262 144 148 114 191 239 243 173 182 222 265 265 234 230 259 278 294 260 249 250 252 349 4 322 347 311 306 329 319 322 347 323 337
168 152 186 189 194 207 234 230 216 203 153 195 203 212 194 187 135 181 197 225 229 241 223 238 256 241 229 253 279 90 77 59 4 345 291 306 302 302 315 321 360 313 354
227 152 217 242 257 282 292 295 298 244 193 204 248 213 178 191 203 209 201 205 236 214 228 215 226 241 241 219 237 103 103 80 13 348 304 287 290 314 12 313 355 320 348